Time,TemperatureF,DewpointF,PressureIn,WindDirection,WindDirectionDegrees,WindSpeedMPH,WindSpeedGustMPH,Humidity,HourlyPrecipIn,Conditions,Clouds,dailyrainin,SoftwareType,DateUTC
2013-05-20 00:01:00,27.0,17.9,30.69,SW,225,0.0,-999.0,68,-99.99,,,0.00,Acu-Link.com,2013-05-20 08:01:00,
2013-05-20 00:16:00,26.6,17.8,30.69,SW,225,0.0,-999.0,69,-99.99,,,0.00,Acu-Link.com,2013-05-20 08:16:00,
2013-05-20 00:32:00,26.1,17.7,30.69,SW,225,0.0,-999.0,70,-99.99,,,0.00,Acu-Link.com,2013-05-20 08:32:00,
2013-05-20 00:47:00,25.9,17.5,30.71,SW,225,0.0,-999.0,70,-99.99,,,0.00,Acu-Link.com,2013-05-20 08:47:00,
2013-05-20 01:02:00,25.5,16.8,30.70,SW,225,0.0,-999.0,69,-99.99,,,0.00,Acu-Link.com,2013-05-20 09:02:00,
2013-05-20 01:17:00,25.0,17.3,30.71,SW,225,0.0,-999.0,72,-99.99,,,0.00,Acu-Link.com,2013-05-20 09:17:00,
2013-05-20 01:32:00,25.0,16.9,30.71,SW,225,2.2,-999.0,71,-99.99,,,0.00,Acu-Link.com,2013-05-20 09:32:00,
2013-05-20 01:48:00,25.3,17.9,30.72,SW,225,0.0,-999.0,73,-99.99,,,0.00,Acu-Link.com,2013-05-20 09:48:00,
2013-05-20 02:03:00,25.2,17.1,30.72,SW,225,0.0,-999.0,71,-99.99,,,0.00,Acu-Link.com,2013-05-20 10:03:00,
2013-05-20 02:18:00,24.8,17.4,30.72,SW,225,0.0,-999.0,73,-99.99,,,0.00,Acu-Link.com,2013-05-20 10:18:00,
2013-05-20 02:33:00,24.3,16.6,30.72,SW,225,0.0,-999.0,72,-99.99,,,0.00,Acu-Link.com,2013-05-20 10:33:00,
2013-05-20 02:48:00,23.5,17.4,30.73,SW,225,0.0,-999.0,77,-99.99,,,0.00,Acu-Link.com,2013-05-20 10:48:00,
2013-05-20 03:03:00,23.9,16.8,30.74,SW,225,0.0,-999.0,74,-99.99,,,0.00,Acu-Link.com,2013-05-20 11:03:00,
2013-05-20 03:18:00,23.9,16.8,30.73,SW,225,0.0,-999.0,74,-99.99,,,0.00,Acu-Link.com,2013-05-20 11:18:00,
2013-05-20 03:33:00,23.7,17.3,30.74,SW,225,0.0,-999.0,76,-99.99,,,0.00,Acu-Link.com,2013-05-20 11:33:00,
2013-05-20 03:49:00,23.2,16.8,30.74,SW,225,0.0,-999.0,76,-99.99,,,0.00,Acu-Link.com,2013-05-20 11:49:00,
2013-05-20 04:04:00,23.0,16.9,30.75,SW,225,0.0,-999.0,77,-99.99,,,0.00,Acu-Link.com,2013-05-20 12:04:00,
2013-05-20 04:19:00,23.4,16.7,30.75,SW,225,0.0,-999.0,75,-99.99,,,0.00,Acu-Link.com,2013-05-20 12:19:00,
2013-05-20 04:34:00,23.5,16.5,30.76,SW,225,0.0,-999.0,74,-99.99,,,0.00,Acu-Link.com,2013-05-20 12:34:00,
2013-05-20 04:49:00,23.2,16.5,30.75,SW,225,0.0,-999.0,75,-99.99,,,0.00,Acu-Link.com,2013-05-20 12:49:00,
2013-05-20 05:04:00,23.4,17.3,30.76,SW,225,0.0,-999.0,77,-99.99,,,0.00,Acu-Link.com,2013-05-20 13:04:00,
2013-05-20 05:19:00,23.5,17.1,30.75,SW,225,0.0,-999.0,76,-99.99,,,0.00,Acu-Link.com,2013-05-20 13:19:00,
2013-05-20 05:34:00,24.4,17.3,30.75,SW,225,0.0,-999.0,74,-99.99,,,0.00,Acu-Link.com,2013-05-20 13:34:00,
2013-05-20 05:49:00,25.7,17.9,30.76,SW,225,0.0,-999.0,72,-99.99,,,0.00,Acu-Link.com,2013-05-20 13:49:00,
2013-05-20 06:05:00,27.0,18.9,30.76,SW,225,0.0,-999.0,71,-99.99,,,0.00,Acu-Link.com,2013-05-20 14:05:00,
2013-05-20 06:20:00,28.2,19.0,30.75,SW,225,0.0,-999.0,68,-99.99,,,0.00,Acu-Link.com,2013-05-20 14:20:00,
2013-05-20 06:35:00,30.7,18.5,30.75,SW,225,0.0,-999.0,60,-99.99,,,0.00,Acu-Link.com,2013-05-20 14:35:00,
2013-05-20 06:50:00,32.4,17.2,30.75,SW,225,0.0,-999.0,53,-99.99,,,0.00,Acu-Link.com,2013-05-20 14:50:00,
2013-05-20 07:05:00,34.5,17.3,30.76,SW,225,0.0,-999.0,49,-99.99,,,0.00,Acu-Link.com,2013-05-20 15:05:00,
2013-05-20 07:20:00,38.3,17.8,30.75,SW,225,0.0,-999.0,43,-99.99,,,0.00,Acu-Link.com,2013-05-20 15:20:00,
2013-05-20 07:35:00,40.5,18.1,30.76,NNE,22,0.0,-999.0,40,-99.99,,,0.00,Acu-Link.com,2013-05-20 15:35:00,
2013-05-20 07:50:00,44.1,18.2,30.76,SSE,157,0.0,-999.0,35,-99.99,,,0.00,Acu-Link.com,2013-05-20 15:50:00,
2013-05-20 08:05:00,43.5,18.3,30.75,ESE,112,2.2,-999.0,36,-99.99,,,0.00,Acu-Link.com,2013-05-20 16:05:00,
2013-05-20 08:21:00,45.0,19.0,30.76,ESE,112,0.0,-999.0,35,-99.99,,,0.00,Acu-Link.com,2013-05-20 16:21:00,
2013-05-20 08:36:00,45.0,18.3,30.75,SSW,202,0.0,-999.0,34,-99.99,,,0.00,Acu-Link.com,2013-05-20 16:36:00,
2013-05-20 08:51:00,47.1,18.0,30.75,ESE,112,1.7,-999.0,31,-99.99,,,0.00,Acu-Link.com,2013-05-20 16:51:00,
2013-05-20 09:06:00,47.1,18.0,30.75,SSE,157,3.7,-999.0,31,-99.99,,,0.00,Acu-Link.com,2013-05-20 17:06:00,
2013-05-20 09:21:00,46.8,18.5,30.75,SE,135,2.2,-999.0,32,-99.99,,,0.00,Acu-Link.com,2013-05-20 17:21:00,
2013-05-20 09:36:00,46.2,18.0,30.74,SW,225,3.7,-999.0,32,-99.99,,,0.00,Acu-Link.com,2013-05-20 17:36:00,
2013-05-20 09:51:00,46.4,18.2,30.74,ESE,112,2.7,-999.0,32,-99.99,,,0.00,Acu-Link.com,2013-05-20 17:51:00,
2013-05-20 10:06:00,44.6,16.6,30.74,East,90,1.7,-999.0,32,-99.99,,,0.00,Acu-Link.com,2013-05-20 18:06:00,
2013-05-20 10:21:00,44.2,16.9,30.73,SSE,157,2.2,-999.0,33,-99.99,,,0.00,Acu-Link.com,2013-05-20 18:21:00,
2013-05-20 10:37:00,44.8,16.0,30.73,SSE,157,2.7,-999.0,31,-99.99,,,0.00,Acu-Link.com,2013-05-20 18:37:00,
2013-05-20 10:52:00,46.6,16.8,30.73,SSE,157,3.2,-999.0,30,-99.99,,,0.00,Acu-Link.com,2013-05-20 18:52:00,
2013-05-20 11:07:00,46.4,18.2,30.72,SSE,157,2.2,-999.0,32,-99.99,,,0.00,Acu-Link.com,2013-05-20 19:07:00,
2013-05-20 11:22:00,46.8,17.8,30.72,ENE,67,2.2,-999.0,31,-99.99,,,0.00,Acu-Link.com,2013-05-20 19:22:00,
2013-05-20 11:37:00,47.7,17.0,30.71,SE,135,0.0,-999.0,29,-99.99,,,0.00,Acu-Link.com,2013-05-20 19:37:00,
2013-05-20 11:52:00,48.2,17.5,30.71,WNW,292,4.7,-999.0,29,-99.99,,,0.00,Acu-Link.com,2013-05-20 19:52:00,
2013-05-20 12:07:00,49.6,17.9,30.70,SE,135,3.7,-999.0,28,-99.99,,,0.00,Acu-Link.com,2013-05-20 20:07:00,
2013-05-20 12:22:00,49.1,18.2,30.70,ENE,67,2.7,-999.0,29,-99.99,,,0.00,Acu-Link.com,2013-05-20 20:22:00,
2013-05-20 12:37:00,50.0,18.2,30.70,NE,45,3.2,-999.0,28,-99.99,,,0.00,Acu-Link.com,2013-05-20 20:37:00,
2013-05-20 12:53:00,49.6,18.7,30.69,SSE,157,4.7,-999.0,29,-99.99,,,0.00,Acu-Link.com,2013-05-20 20:53:00,
2013-05-20 13:08:00,50.5,18.6,30.69,SSE,157,2.7,-999.0,28,-99.99,,,0.00,Acu-Link.com,2013-05-20 21:08:00,
2013-05-20 13:23:00,51.3,19.3,30.68,ESE,112,4.2,-999.0,28,-99.99,,,0.00,Acu-Link.com,2013-05-20 21:23:00,
2013-05-20 13:38:00,51.6,19.6,30.68,East,90,4.2,-999.0,28,-99.99,,,0.00,Acu-Link.com,2013-05-20 21:38:00,
2013-05-20 13:53:00,52.7,20.5,30.67,NNW,337,3.2,-999.0,28,-99.99,,,0.00,Acu-Link.com,2013-05-20 21:53:00,
2013-05-20 14:08:00,52.0,18.2,30.67,South,180,3.7,-999.0,26,-99.99,,,0.00,Acu-Link.com,2013-05-20 22:08:00,
2013-05-20 14:23:00,52.3,18.5,30.66,SW,225,1.7,-999.0,26,-99.99,,,0.00,Acu-Link.com,2013-05-20 22:23:00,
2013-05-20 14:38:00,52.3,19.3,30.66,WNW,292,4.2,-999.0,27,-99.99,,,0.00,Acu-Link.com,2013-05-20 22:38:00,
2013-05-20 14:53:00,53.6,18.6,30.65,NE,45,6.8,-999.0,25,-99.99,,,0.00,Acu-Link.com,2013-05-20 22:53:00,
2013-05-20 15:09:00,52.0,16.3,30.64,WSW,247,1.1,-999.0,24,-99.99,,,0.00,Acu-Link.com,2013-05-20 23:09:00,
2013-05-20 15:24:00,53.4,16.6,30.65,ESE,112,6.3,-999.0,23,-99.99,,,0.00,Acu-Link.com,2013-05-20 23:24:00,
2013-05-20 15:39:00,54.1,19.1,30.64,ESE,112,2.2,-999.0,25,-99.99,,,0.00,Acu-Link.com,2013-05-20 23:39:00,
2013-05-20 15:54:00,54.1,17.1,30.63,WSW,247,6.8,-999.0,23,-99.99,,,0.00,Acu-Link.com,2013-05-20 23:54:00,
2013-05-20 16:09:00,54.0,17.1,30.63,SE,135,3.2,-999.0,23,-99.99,,,0.00,Acu-Link.com,2013-05-21 00:09:00,
2013-05-20 16:24:00,54.3,16.3,30.62,SE,135,3.2,-999.0,22,-99.99,,,0.00,Acu-Link.com,2013-05-21 00:24:00,
2013-05-20 16:39:00,53.6,15.7,30.61,ENE,67,0.0,-999.0,22,-99.99,,,0.00,Acu-Link.com,2013-05-21 00:39:00,
2013-05-20 16:55:00,55.4,20.2,30.61,ESE,112,2.7,-999.0,25,-99.99,,,0.00,Acu-Link.com,2013-05-21 00:55:00,
2013-05-20 17:10:00,54.1,17.1,30.61,ENE,67,1.1,-999.0,23,-99.99,,,0.00,Acu-Link.com,2013-05-21 01:10:00,
2013-05-20 17:25:00,55.4,17.2,30.59,South,180,3.2,-999.0,22,-99.99,,,0.00,Acu-Link.com,2013-05-21 01:25:00,
2013-05-20 17:40:00,56.3,18.0,30.60,SSW,202,3.7,-999.0,22,-99.99,,,0.00,Acu-Link.com,2013-05-21 01:40:00,
2013-05-20 17:55:00,56.7,17.2,30.59,SE,135,5.3,-999.0,21,-99.99,,,0.00,Acu-Link.com,2013-05-21 01:55:00,
2013-05-20 18:10:00,56.1,16.7,30.58,SE,135,3.7,-999.0,21,-99.99,,,0.00,Acu-Link.com,2013-05-21 02:10:00,
2013-05-20 18:25:00,55.4,17.2,30.58,SW,225,3.2,-999.0,22,-99.99,,,0.00,Acu-Link.com,2013-05-21 02:25:00,
2013-05-20 18:40:00,55.6,17.4,30.57,ESE,112,2.7,-999.0,22,-99.99,,,0.00,Acu-Link.com,2013-05-21 02:40:00,
2013-05-20 18:55:00,55.4,19.2,30.57,East,90,3.2,-999.0,24,-99.99,,,0.00,Acu-Link.com,2013-05-21 02:55:00,
2013-05-20 19:11:00,55.6,17.4,30.57,East,90,3.7,-999.0,22,-99.99,,,0.00,Acu-Link.com,2013-05-21 03:11:00,
2013-05-20 19:26:00,54.3,18.3,30.56,East,90,0.0,-999.0,24,-99.99,,,0.00,Acu-Link.com,2013-05-21 03:26:00,
2013-05-20 19:41:00,55.8,15.3,30.57,SE,135,1.7,-999.0,20,-99.99,,,0.00,Acu-Link.com,2013-05-21 03:41:00,
2013-05-20 19:56:00,57.7,16.9,30.56,SE,135,1.7,-999.0,20,-99.99,,,0.00,Acu-Link.com,2013-05-21 03:56:00,
2013-05-20 20:11:00,56.1,16.7,30.55,SE,135,1.1,-999.0,21,-99.99,,,0.00,Acu-Link.com,2013-05-21 04:11:00,
2013-05-20 20:26:00,54.7,15.6,30.56,South,180,0.0,-999.0,21,-99.99,,,0.00,Acu-Link.com,2013-05-21 04:26:00,
2013-05-20 20:41:00,54.7,17.6,30.55,NE,45,0.0,-999.0,23,-99.99,,,0.00,Acu-Link.com,2013-05-21 04:41:00,
2013-05-20 20:56:00,56.1,16.7,30.54,ESE,112,0.0,-999.0,21,-99.99,,,0.00,Acu-Link.com,2013-05-21 04:56:00,
2013-05-20 21:11:00,56.7,17.2,30.54,SSE,157,0.0,-999.0,21,-99.99,,,0.00,Acu-Link.com,2013-05-21 05:11:00,
2013-05-20 21:27:00,55.0,17.9,30.54,SSE,157,2.2,-999.0,23,-99.99,,,0.00,Acu-Link.com,2013-05-21 05:27:00,
2013-05-20 21:42:00,53.1,17.3,30.54,ESE,112,0.0,-999.0,24,-99.99,,,0.00,Acu-Link.com,2013-05-21 05:42:00,
2013-05-20 21:57:00,52.0,17.3,30.53,ESE,112,0.0,-999.0,25,-99.99,,,0.00,Acu-Link.com,2013-05-21 05:57:00,
2013-05-20 22:12:00,50.4,21.7,30.53,ESE,112,0.0,-999.0,32,-99.99,,,0.00,Acu-Link.com,2013-05-21 06:12:00,
2013-05-20 22:27:00,45.5,23.2,30.54,ESE,112,0.0,-999.0,41,-99.99,,,0.00,Acu-Link.com,2013-05-21 06:27:00,
2013-05-20 22:42:00,42.3,22.5,30.53,ESE,112,0.0,-999.0,45,-99.99,,,0.00,Acu-Link.com,2013-05-21 06:42:00,
2013-05-20 22:57:00,39.0,22.9,30.53,ESE,112,0.0,-999.0,52,-99.99,,,0.00,Acu-Link.com,2013-05-21 06:57:00,
2013-05-20 23:12:00,37.0,21.9,30.54,ESE,112,0.0,-999.0,54,-99.99,,,0.00,Acu-Link.com,2013-05-21 07:12:00,
2013-05-20 23:27:00,35.6,21.0,30.53,East,90,2.7,-999.0,55,-99.99,,,0.00,Acu-Link.com,2013-05-21 07:27:00,
2013-05-20 23:43:00,35.4,19.5,30.54,East,90,0.0,-999.0,52,-99.99,,,0.00,Acu-Link.com,2013-05-21 07:43:00,
2013-05-20 23:58:00,34.7,20.2,30.53,East,90,0.0,-999.0,55,-99.99,,,0.00,Acu-Link.com,2013-05-21 07:58:00,